Weather History for Weslaco, TX

Change the Weather History Date:

Monday, November 12, 2012

  Actual Average (KMFE) Record (KMFE)
Temperature  
Mean Temperature 66 °F 70 °F  
Max Temperature 71 °F 81 °F 91 °F (1970)
Min Temperature 59 °F 60 °F 38 °F (1887)
Degree Days  
Heating Degree Days 0 1  
Month to date heating degree days 12  
Since 1 July heating degree days 17  
Cooling Degree Days 0 7  
Month to date cooling degree days 96  
Year to date cooling degree days 4278  
Growing Degree Days 16 (Base 50)    
Moisture  
Dew Point 45 °F    
Average Humidity 49    
Maximum Humidity 88    
Minimum Humidity 23    
Precipitation  
Precipitation 0.00 in 0.02 in 0.83 in (1967)
Month to date precipitation 0.43  
Year to date precipitation 20.55  
Sea Level Pressure  
Sea Level Pressure 30.26 in    
Wind  
Wind Speed 8 mph (NNE)    
Max Wind Speed 24 mph    
Max Gust Speed 33 mph    
Visibility 10 miles    
Events      
T = Trace of Precipitation, MM = Missing Value Source: NWS Daily Summary

Daily Weather History Graph

Daily Weather History Graph

Search for Another Location

Airport:

Trip Planner

Search our weather history database for the weather conditions in past years. The results will help you decide how hot, cold, wet, or windy it might be!

Date:

Astronomy

Nov. 12, 2012 Rise Set
Actual Time 6:48 AM CST 5:43 PM CST
Civil Twilight 6:24 AM CST 6:07 PM CST
Nautical Twilight 5:56 AM CST 6:35 PM CST
Astronomical Twilight 5:29 AM CST 7:02 PM CST
Moon 5:20 AM CST (11/12) 4:47 PM CST (11/12)
Length of Visible Light 11h 43m
Length of Day
10h 54m
Waning Crescent, 2% of the Moon is Illuminated
Nov 12
Waning Crescent
Nov 13
New
Nov 20
First Quarter
Nov 28
Full
Dec 6
Last Quarter

Hourly Weather History & Observations

Time (CST) Temp. Dew Point Humidity Pressure Visibility Wind Dir Wind Speed Gust Speed Precip Events Conditions
12:15 AM 71.6 °F 64.4 °F 78% 30.05 in 10.0 mi Calm Calm - N/A   Unknown
12:55 AM 69.8 °F 62.6 °F 78% 30.05 in 10.0 mi Calm Calm - N/A   Unknown
1:15 AM 69.8 °F 64.4 °F 83% 30.05 in 10.0 mi Calm Calm - N/A   Unknown
1:35 AM 69.8 °F 64.4 °F 83% 30.05 in 10.0 mi Calm Calm - N/A   Unknown
1:55 AM 68.0 °F 64.4 °F 88% 30.06 in 7.0 mi Calm Calm - N/A   Unknown
2:15 AM 69.8 °F 64.4 °F 83% 30.06 in 10.0 mi Calm Calm - N/A   Unknown
2:35 AM 68.0 °F 64.4 °F 88% 30.05 in 7.0 mi Calm Calm - N/A   Unknown
2:55 AM 68.0 °F 62.6 °F 83% 30.06 in 7.0 mi Calm Calm - N/A   Unknown
3:15 AM 68.0 °F 64.4 °F 88% 30.06 in 7.0 mi Calm Calm - N/A   Unknown
3:35 AM 68.0 °F 62.6 °F 83% 30.06 in 7.0 mi Calm Calm - N/A   Unknown
3:55 AM 68.0 °F 62.6 °F 83% 30.07 in 7.0 mi Calm Calm - N/A   Unknown
4:15 AM 66.2 °F 62.6 °F 88% 30.08 in 7.0 mi Calm Calm - N/A   Unknown
4:35 AM 68.0 °F 62.6 °F 83% 30.08 in 7.0 mi Calm Calm - N/A   Unknown
4:55 AM 68.0 °F 64.4 °F 88% 30.09 in 7.0 mi NNW 5.8 mph - N/A   Unknown
5:15 AM 69.8 °F 64.4 °F 83% 30.11 in 10.0 mi North 11.5 mph 17.3 mph N/A   Unknown
5:35 AM 68.0 °F 59.0 °F 73% 30.13 in 10.0 mi North 9.2 mph 19.6 mph N/A   Unknown
5:55 AM 68.0 °F 53.6 °F 60% 30.12 in 10.0 mi North 13.8 mph 26.5 mph N/A   Unknown
6:15 AM 66.2 °F 51.8 °F 60% 30.14 in 10.0 mi NNE 16.1 mph 25.3 mph N/A   Unknown
6:35 AM 66.2 °F 48.2 °F 52% 30.17 in 10.0 mi North 15.0 mph 25.3 mph N/A   Unknown
6:55 AM 66.2 °F 48.2 °F 52% 30.18 in 10.0 mi North 15.0 mph 24.2 mph N/A   Unknown
7:15 AM 66.2 °F 48.2 °F 52% 30.20 in 10.0 mi North 12.7 mph 26.5 mph N/A   Unknown
7:35 AM 66.2 °F 48.2 °F 52% 30.21 in 10.0 mi North 17.3 mph 28.8 mph N/A   Unknown
7:55 AM 66.2 °F 48.2 °F 52% 30.23 in 10.0 mi NNE 24.2 mph 33.4 mph N/A   Unknown
8:15 AM 66.2 °F 50.0 °F 56% 30.24 in 10.0 mi North 18.4 mph 31.1 mph N/A   Unknown
8:35 AM 66.2 °F 50.0 °F 56% 30.26 in 10.0 mi NNE 21.9 mph 33.4 mph N/A   Overcast
8:55 AM 66.2 °F 50.0 °F 56% 30.28 in 10.0 mi NNE 19.6 mph 29.9 mph N/A   Overcast
9:15 AM 66.2 °F 50.0 °F 56% 30.30 in 10.0 mi North 17.3 mph 33.4 mph N/A   Overcast
9:55 AM 64.4 °F 50.0 °F 59% 30.33 in 10.0 mi North 15.0 mph 19.6 mph N/A   Overcast
10:15 AM 64.4 °F 48.2 °F 56% 30.34 in 10.0 mi North 11.5 mph 20.7 mph N/A   Overcast
10:35 AM 68.0 °F 46.4 °F 46% 30.33 in 10.0 mi North 16.1 mph 21.9 mph N/A   Overcast
10:55 AM 69.8 °F 46.4 °F 43% 30.33 in 10.0 mi North 19.6 mph 25.3 mph N/A   Overcast
11:15 AM 71.6 °F 46.4 °F 41% 30.33 in 10.0 mi NNE 21.9 mph 27.6 mph N/A   Overcast
11:35 AM 69.8 °F 46.4 °F 43% 30.32 in 10.0 mi North 17.3 mph 26.5 mph N/A   Overcast
11:55 AM 69.8 °F 46.4 °F 43% 30.32 in 10.0 mi North 12.7 mph 26.5 mph N/A   Overcast
12:15 PM 69.8 °F 44.6 °F 40% 30.32 in 10.0 mi NNE 17.3 mph 24.2 mph N/A   Overcast
12:35 PM 69.8 °F 44.6 °F 40% 30.31 in 10.0 mi NNE 16.1 mph 20.7 mph N/A   Mostly Cloudy
12:55 PM 69.8 °F 39.2 °F 33% 30.31 in 10.0 mi NNE 19.6 mph 26.5 mph N/A   Scattered Clouds
1:15 PM 71.6 °F 37.4 °F 29% 30.31 in 10.0 mi NNE 17.3 mph 25.3 mph N/A   Scattered Clouds
1:35 PM 71.6 °F 37.4 °F 29% 30.31 in 10.0 mi North 17.3 mph 23.0 mph N/A   Mostly Cloudy
1:55 PM 71.6 °F 35.6 °F 27% 30.31 in 10.0 mi North 15.0 mph 23.0 mph N/A   Mostly Cloudy
2:15 PM 71.6 °F 35.6 °F 27% 30.30 in 10.0 mi NNE 17.3 mph 25.3 mph N/A   Mostly Cloudy
2:35 PM 71.6 °F 35.6 °F 27% 30.31 in 10.0 mi NNE 12.7 mph 20.7 mph N/A   Mostly Cloudy
2:55 PM 71.6 °F 35.6 °F 27% 30.30 in 10.0 mi NNE 15.0 mph 21.9 mph N/A   Mostly Cloudy
3:15 PM 71.6 °F 35.6 °F 27% 30.30 in 10.0 mi NNE 10.4 mph 24.2 mph N/A   Scattered Clouds
3:35 PM 71.6 °F 32.0 °F 23% 30.30 in 10.0 mi NNE 17.3 mph 26.5 mph N/A   Overcast
3:55 PM 69.8 °F 33.8 °F 27% 30.31 in 10.0 mi NNE 13.8 mph 21.9 mph N/A   Overcast
4:15 PM 69.8 °F 33.8 °F 27% 30.32 in 10.0 mi NNE 10.4 mph 17.3 mph N/A   Overcast
4:35 PM 69.8 °F 35.6 °F 28% 30.31 in 10.0 mi NE 15.0 mph - N/A   Overcast
4:55 PM 68.0 °F 35.6 °F 30% 30.31 in 10.0 mi NE 13.8 mph 18.4 mph N/A   Overcast
5:15 PM 68.0 °F 35.6 °F 30% 30.32 in 10.0 mi NE 10.4 mph - N/A   Overcast
5:35 PM 68.0 °F 35.6 °F 30% 30.33 in 10.0 mi NE 10.4 mph 16.1 mph N/A   Mostly Cloudy
5:55 PM 64.4 °F 35.6 °F 34% 30.34 in 10.0 mi NE 11.5 mph 16.1 mph N/A   Scattered Clouds
6:15 PM 64.4 °F 35.6 °F 34% 30.34 in 10.0 mi NE 11.5 mph 17.3 mph N/A   Mostly Cloudy
6:35 PM 64.4 °F 35.6 °F 34% 30.34 in 10.0 mi NE 8.1 mph - N/A   Overcast
6:55 PM 62.6 °F 35.6 °F 37% 30.35 in 10.0 mi NE 8.1 mph - N/A   Mostly Cloudy
7:15 PM 62.6 °F 37.4 °F 39% 30.35 in 10.0 mi NE 6.9 mph - N/A   Mostly Cloudy
7:35 PM 62.6 °F 37.4 °F 39% 30.36 in 10.0 mi NNE 8.1 mph - N/A   Overcast
7:55 PM 62.6 °F 35.6 °F 37% 30.36 in 10.0 mi NNE 6.9 mph - N/A   Overcast
8:15 PM 62.6 °F 35.6 °F 37% 30.37 in 10.0 mi North 5.8 mph - N/A   Overcast
8:35 PM 62.6 °F 35.6 °F 37% 30.37 in 10.0 mi North 5.8 mph - N/A   Overcast
8:55 PM 62.6 °F 35.6 °F 37% 30.38 in 10.0 mi North 5.8 mph - N/A   Overcast
9:15 PM 62.6 °F 35.6 °F 37% 30.38 in 10.0 mi North 9.2 mph - N/A   Overcast
9:35 PM 62.6 °F 33.8 °F 34% 30.38 in 10.0 mi North 8.1 mph - N/A   Overcast
9:55 PM 62.6 °F 32.0 °F 32% 30.39 in 10.0 mi North 8.1 mph - N/A   Overcast
10:15 PM 62.6 °F 32.0 °F 32% 30.39 in 10.0 mi North 6.9 mph - N/A   Overcast
10:35 PM 60.8 °F 32.0 °F 34% 30.39 in 10.0 mi North 6.9 mph - N/A   Overcast
10:55 PM 60.8 °F 32.0 °F 34% 30.38 in 10.0 mi North 4.6 mph - N/A   Overcast
11:15 PM 60.8 °F 32.0 °F 34% 30.38 in 10.0 mi North 5.8 mph - N/A   Overcast
11:35 PM 60.8 °F 32.0 °F 34% 30.37 in 10.0 mi North 8.1 mph - N/A   Scattered Clouds
11:55 PM 59.0 °F 32.0 °F 36% 30.37 in 10.0 mi North 8.1 mph - N/A   Clear